Weather History for Miyakojima, Japan

Change the Weather History Date:

Thursday, March 21, 2013

  Actual Average Record
Temperature  
Mean Temperature 70 °F -  
Max Temperature 72 °F 74 °F 80 °F (2009)
Min Temperature 68 °F 66 °F 58 °F (2014)
Cooling Degree Days 5    
Growing Degree Days 20 (Base 50)    
Moisture  
Dew Point 63 °F    
Average Humidity 77    
Maximum Humidity 83    
Minimum Humidity 73    
Precipitation  
Precipitation 0.00 in - - ()
Sea Level Pressure  
Sea Level Pressure 29.99 in    
Wind  
Wind Speed 11 mph ()    
Max Wind Speed 16 mph    
Max Gust Speed -    
Visibility 4.3 miles    
Events Rain    
Averages and records for this station are not official NWS values.
T = Trace of Precipitation, MM = Missing Value Source: Averaged Metar Reports

Daily Weather History Graph

Daily Weather History Graph

Search for Another Location

Airport:

Trip Planner

Search our weather history database for the weather conditions in past years. The results will help you decide how hot, cold, wet, or windy it might be!

Date:

Astronomy

Mar. 21, 2013 Rise Set
Actual Time 6:42 AM JST 6:50 PM JST
Civil Twilight 6:19 AM JST 7:13 PM JST
Nautical Twilight 5:52 AM JST 7:39 PM JST
Astronomical Twilight 5:26 AM JST 8:06 PM JST
Moon 1:18 PM JST (3/21) 2:07 AM JST (3/21)
Length of Visible Light 12h 53m
Length of Day
12h 08m
Waxing Gibbous, 63% of the Moon is Illuminated
Mar 21
Waxing Gibbous
Mar 27
Full
Apr 3
Last Quarter
Apr 10
New
Apr 18
First Quarter

Hourly Weather History & Observations

Time (JST) Temp. Dew Point Humidity Pressure Visibility Wind Dir Wind Speed Gust Speed Precip Events Conditions
12:00 AM 72 °F 68 °F 82% 30.01 in - NNE 16.1 mph - -  
3:00 AM 70 °F 65 °F 81% 29.98 in 6 mi NNE 13.8 mph - - Rain Light Rain Showers
6:00 AM 69 °F 64 °F 80% 29.98 in 6 mi NE 13.8 mph - - Rain Light Rain Showers
6:30 AM 68.0 °F 62.6 °F 83% 29.98 in 4.3 mi NE 13.8 mph - N/A   Mostly Cloudy
7:00 AM 68.0 °F 62.6 °F 83% 29.98 in 4.3 mi NE 10.4 mph - N/A   Mostly Cloudy
8:00 AM 69.8 °F 62.6 °F 78% 30.01 in 4.3 mi NE 12.7 mph - N/A   Mostly Cloudy
9:00 AM 71 °F 65 °F 75% 30.04 in 4 mi NE 12.7 mph - -   Mist
9:00 AM 69.8 °F 62.6 °F 78% 30.01 in 3.7 mi NE 12.7 mph - N/A   Mostly Cloudy
10:00 AM 71.6 °F 62.6 °F 73% 30.04 in 4.3 mi NE 11.5 mph - N/A   Mostly Cloudy
11:00 AM 71.6 °F 62.6 °F 73% 30.04 in 3.7 mi NE 12.7 mph - N/A   Mostly Cloudy
12:00 PM 71 °F 65 °F 74% 30.04 in 4 mi NE 11.5 mph - -   Mist
12:00 PM 71.6 °F 62.6 °F 73% 30.01 in 3.7 mi NE 12.7 mph - N/A   Mostly Cloudy
1:00 PM 71.6 °F 62.6 °F 73% 29.98 in 4.3 mi ENE 11.5 mph - N/A   Mostly Cloudy
2:00 PM 71.6 °F 62.6 °F 73% 29.98 in 4.3 mi NE 12.7 mph - N/A   Mostly Cloudy
3:00 PM 71 °F 64 °F 74% 29.97 in 4 mi ENE 11.5 mph - -   Mist
3:00 PM 71.6 °F 62.6 °F 73% 29.95 in 4.3 mi NE 12.7 mph - N/A   Mostly Cloudy
4:00 PM 71.6 °F 62.6 °F 73% 29.95 in 3.7 mi ENE 10.4 mph - N/A   Mostly Cloudy
5:00 PM 69.8 °F 62.6 °F 78% 29.95 in 4.3 mi ENE 10.4 mph - N/A   Overcast
6:00 PM 70 °F 64 °F 75% 29.98 in 4 mi ENE 10.4 mph - -   Mist
6:00 PM 69.8 °F 62.6 °F 78% 29.95 in 4.3 mi ENE 11.5 mph - N/A   Mostly Cloudy
7:00 PM 68.0 °F 62.6 °F 83% 29.95 in 4.3 mi ENE 10.4 mph - N/A   Mostly Cloudy
8:00 PM 68.0 °F 62.6 °F 83% 29.95 in 4.3 mi ENE 9.2 mph - N/A   Mostly Cloudy
9:00 PM 69 °F 65 °F 82% 30.00 in 5 mi ENE 10.4 mph - -   Mist